Farquhar Airport

Jump to: basic info | weather | runways | comments

Related pages: nearby airports | nearby navaids | notams | map

Basic information (top)

Codes: FSFA
Location: lon -10.109600, lat 51.176102, elev 10 ft / 3 m msl
Status: small_airport

Weather (top)

Current conditions for Prince Said Ibrahim International Airport 474nm (878km) W (rec'd 2015/02/01 08:00Z):

FMCH 010800Z 34014KT 310V010 9999 FEW020 31/23 Q1011 NOSIG

Airport forecast for Prince Said Ibrahim International Airport 474nm (878km) W (rec'd 2015/02/01 06:00Z):

TAF FMCH 010500Z 0106/0212 34010KT 9999 FEW020 SCT030 PROB30 
      TEMPO 0110/0115 4000 SHRA FEW020CB BKN030 
      BECMG 0118/0120 VRB03KT 
      BECMG 0206/0208 33012KT

Runways (top)

13/31: 3,035 x 75 ft (925 x 23 m) — paved — not lighted

Latest comments (top)

No comments yet for Farquhar Airport

More... (top)

See also NOTAMs and nearby airports and navaids, or visit the Farquhar Airport page at the main OurAirports website..